[[{"header":{"parameterUnit":"m.s-1","parameterCategory":1,"la1":30.2991,"la2":30.254,"lo1":-89.0895,"lo2":-89.0444,"dy":0.0017,"dx":0.0017,"nx":28,"ny":28,"refTime":"2024-03-05T09:00:00:Z","depth":0,"parameterNumber":2,"parameterNumberName":"U-component_of_WINDS"},"data":[0,0,0,0,0,0,0,0,0,0,0,0,0,0,0,0,0,0,0,0,0,0,0,0,0,0,0,0,0,0,0,0,0,0,0,0,0,0,0,0,0,0,0,0,0,0,0,0,0,0,0,0,0,0,0,0,0,0,0.3234,0.3235,0,0.3353,0.3354,0.3356,0.3373,0.3372,0.3371,0.337,0.3494,0.3498,0.3503,0,0,0,0,0,0,0,0,0,0,0,0,0,0.3022,0.3026,0.3234,0.3235,0.3237,0.3353,0.3354,0.3356,0.3374,0.3372,0.3371,0.337,0.3493,0.3498,0.3503,0,0,0,0,0,0,0,0,0,0,0,0,0,0.3125,0.3027,0.3233,0.3259,0.3263,0.3352,0.3354,0.3356,0.3374,0.3372,0.3371,0.3369,0.3491,0.3497,0.3504,0.3576,0,0,0.3523,0.3526,0,0,0,0,0,0,0,0,0.3119,0.3133,0.3254,0.3258,0.3262,0.3347,0.3325,0.343,0.3374,0.3332,0.337,0.3368,0.3446,0.3456,0.3482,0.3582,0.3587,0.3524,0.3528,0.3531,0.3532,0,0,0,0,0,0,0,0.3112,0.3128,0.3281,0.3256,0.3261,0.3265,0.3278,0.3345,0.3397,0.3335,0.3337,0.3351,0.3448,0.3476,0.3486,0.3589,0.3524,0.353,0.3534,0.3536,0.3755,0.3756,0,0,0,0,0,0,0.31,0.3122,0.3277,0.3284,0.3185,0.3271,0.3285,0.3321,0.3396,0.3406,0.3352,0.3351,0.3466,0.3478,0.349,0.358,0.3531,0.3537,0.354,0.3753,0.3755,0.3757,0,0,0,0,0,0,0.3095,0.3114,0.3272,0.3204,0.3224,0.3276,0.3316,0.3324,0.3352,0.3409,0.3418,0.3371,0.3465,0.3481,0.3555,0.3585,0.354,0.3545,0.375,0.3753,0.3756,0.3761,0,0,0,0,0,0,0.3089,0.3112,0.314,0.3204,0.3228,0.3334,0.3318,0.3328,0.3363,0.3363,0.3429,0.3438,0.3465,0.3545,0.3561,0.3593,0.3551,0.3748,0.3752,0.3755,0.3758,0.3763,0.3768,0,0,0,0,0,0.3082,0.3137,0.3141,0.316,0.3263,0.3336,0.335,0.3379,0.3365,0.3394,0.343,0.3436,0.3579,0.3552,0.3571,0.3605,0.3746,0.3751,0.3755,0.3756,0.3762,0.3768,0,0,0,0,0,0,0.3075,0.3146,0.3151,0.3229,0.3276,0.3339,0.3376,0.3385,0.3438,0.3435,0.347,0.3485,0.3557,0.3588,0.3557,0.3679,0.3661,0.3669,0.3656,0.3663,0.3667,0.3659,0.3556,0,0,0,0,0,0.3082,0.3135,0.3194,0.3257,0.328,0.3324,0.3357,0.3375,0.3426,0.3446,0.3488,0.3538,0.3594,0.363,0.3684,0.3763,0.3778,0.3795,0.38,0.3804,0.3811,0.3855,0.3864,0.3771,0.3771,0.3771,0,0,0.3099,0.3144,0.3175,0.3256,0.3296,0.335,0.3341,0.3399,0.3439,0.3455,0.3527,0.356,0.3617,0.3694,0.3729,0.3722,0.3839,0.3809,0.3812,0.3817,0.386,0.3869,0.3877,0.3774,0.3774,0.3773,0,0,0.3156,0.3195,0.3252,0.3291,0.335,0.3378,0.3392,0.3453,0.3475,0.3548,0.3561,0.361,0.3706,0.3747,0.378,0.3852,0.386,0.3869,0.3895,0.3937,0.3945,0.3951,0.3978,0.3986,0.3875,0.3875,0.3875,0,0.3169,0.325,0.328,0.3337,0.3373,0.3389,0.3447,0.3483,0.3557,0.3582,0.3572,0.3693,0.3733,0.3819,0.3836,0.3862,0.3879,0.3862,0.3941,0.3948,0.3955,0.398,0.399,0.3876,0.3876,0.3876,0.3876,0,0.3263,0.332,0.3359,0.3429,0.3469,0.3526,0.3564,0.3602,0.3616,0.3646,0.372,0.3768,0.3833,0.3855,0.387,0.3944,0.3937,0.3934,0.3917,0.3964,0.3988,0.3998,0.3877,0.3877,0.3877,0.3877,0,0,0.332,0.3406,0.342,0.3452,0.3518,0.3563,0.3621,0.3683,0.3715,0.3765,0.3815,0.3895,0.3893,0.393,0.395,0.3988,0.4042,0.398,0.3982,0.399,0.4127,0.4129,0.414,0.4047,0.4049,0.4051,0.4122,0,0.3386,0.3489,0.3517,0.3605,0.3658,0.3674,0.3724,0.3771,0.38,0.385,0.3882,0.3939,0.3931,0.3954,0.3991,0.4027,0.407,0.4023,0.4095,0.4097,0.408,0.4153,0.4155,0.422,0.4132,0.4133,0.4135,0,0.3476,0.3527,0.362,0.368,0.3703,0.3748,0.3808,0.3855,0.3908,0.3926,0.3968,0.3985,0.4046,0.4025,0.4111,0.4078,0.4109,0.4132,0.4135,0.4143,0.4119,0.4163,0.4242,0.4251,0.415,0.4149,0.4148,0,0.3508,0.3601,0.3669,0.3696,0.3767,0.3798,0.3829,0.3881,0.3917,0.3969,0.3993,0.4052,0.4084,0.413,0.4162,0.4144,0.4245,0.4227,0.4263,0.4262,0.4284,0.4283,0.4369,0.4303,0.4303,0.4303,0.4303,0,0.3579,0.3635,0.3685,0.3726,0.379,0.3822,0.3884,0.3916,0.3961,0.401,0.4027,0.4073,0.4112,0.4163,0.4188,0.4256,0.427,0.4288,0.4294,0.4286,0.4284,0.4308,0.4304,0.4306,0.4305,0.4305,0.4304,0,0.3626,0.3661,0.3736,0.3797,0.3814,0.3858,0.391,0.3952,0.3981,0.4043,0.4059,0.4106,0.4167,0.4203,0.428,0.4297,0.4372,0.4376,0.4354,0.4356,0.4391,0.4387,0.4496,0.4512,0.4435,0.4435,0.4436,0,0.3669,0.3713,0.3778,0.3811,0.3843,0.3896,0.3933,0.3966,0.4003,0.4067,0.4101,0.4162,0.4213,0.431,0.4351,0.441,0.4416,0.445,0.4425,0.4416,0.4417,0.4415,0.4419,0.4454,0.4455,0.4456,0.4456,0,0.3741,0.3756,0.3808,0.3866,0.3909,0.3957,0.4004,0.4031,0.4072,0.4113,0.4175,0.4214,0.4293,0.4354,0.4416,0.4449,0.446,0.4463,0.4475,0.4468,0.4454,0.4463,0.4366,0.4461,0.4461,0.446,0.446,0.446,0.3788,0.3828,0.388,0.3937,0.3976,0.402,0.4062,0.4096,0.4148,0.4214,0.423,0.4296,0.4348,0.4433,0.4467,0.4519,0.4513,0.453,0.4534,0.4538,0.4539,0.4445,0.453,0.453,0.453,0.453,0.453,0,0.3862,0.3896,0.3948,0.4013,0.4059,0.4064,0.4116,0.4154,0.4211,0.4258,0.4308,0.438,0.4439,0.4485,0.4546,0.4579,0.4585,0.4594,0.4592,0.4599,0.454,0.4524,0.4587,0.4587,0.4587,0.4587,0.4587,0.4587,0.3905,0.3973,0.3994,0.4081,0.4115,0.4179,0.4208,0.4249,0.4287,0.4366,0.4415,0.4444,0.4491,0.4556,0.4611,0.4623,0.4645,0.4653,0.4666,0.461,0.4603,0.4597,0.4583,0.4657,0.4657,0.472,0.4721,0.4721]},{"header":{"parameterUnit":"m.s-1","parameterCategory":1,"la1":30.2991,"la2":30.254,"lo1":-89.0895,"lo2":-89.0444,"dy":0.0017,"dx":0.0017,"nx":28,"ny":28,"refTime":"2024-03-05T09:00:00:Z","depth":0,"parameterNumber":3,"parameterNumberName":"V-component_of_WINDS"},"data":[0,0,0,0,0,0,0,0,0,0,0,0,0,0,0,0,0,0,0,0,0,0,0,0,0,0,0,0,0,0,0,0,0,0,0,0,0,0,0,0,0,0,0,0,0,0,0,0,0,0,0,0,0,0,0,0,0,0,-0.206,-0.206,0,-0.2091,-0.2092,-0.2092,-0.2142,-0.2143,-0.2144,-0.2145,-0.2176,-0.2176,-0.2176,0,0,0,0,0,0,0,0,0,0,0,0,0,-0.2041,-0.2041,-0.206,-0.206,-0.206,-0.2091,-0.2092,-0.2092,-0.2142,-0.2143,-0.2144,-0.2145,-0.2176,-0.2176,-0.2176,0,0,0,0,0,0,0,0,0,0,0,0,0,-0.2059,-0.2041,-0.2059,-0.2089,-0.2092,-0.2091,-0.2092,-0.2092,-0.2142,-0.2143,-0.2144,-0.2146,-0.2176,-0.2176,-0.2176,-0.2149,0,0,-0.2176,-0.2176,0,0,0,0,0,0,0,0,-0.2057,-0.2059,-0.2084,-0.2087,-0.209,-0.2114,-0.2097,-0.2112,-0.2141,-0.2123,-0.2145,-0.2146,-0.2154,-0.2156,-0.2159,-0.2151,-0.2152,-0.2176,-0.2176,-0.2176,-0.2176,0,0,0,0,0,0,0,-0.2056,-0.2058,-0.2072,-0.2084,-0.2088,-0.21,-0.2104,-0.21,-0.2131,-0.2124,-0.2128,-0.2131,-0.2156,-0.2159,-0.2161,-0.2153,-0.2176,-0.2176,-0.2176,-0.2176,-0.2125,-0.2123,0,0,0,0,0,0,-0.2051,-0.2057,-0.2071,-0.2073,-0.2077,-0.21,-0.2104,-0.2105,-0.2131,-0.2136,-0.213,-0.2133,-0.2159,-0.216,-0.2162,-0.2133,-0.2176,-0.2176,-0.2176,-0.2126,-0.2124,-0.2123,0,0,0,0,0,0,-0.205,-0.2052,-0.207,-0.2066,-0.2069,-0.2098,-0.2099,-0.2105,-0.2108,-0.2135,-0.2141,-0.2127,-0.216,-0.2162,-0.2152,-0.2134,-0.2176,-0.2176,-0.2128,-0.2126,-0.2124,-0.2073,0,0,0,0,0,0,-0.2049,-0.2051,-0.2041,-0.2065,-0.2069,-0.206,-0.2098,-0.2105,-0.2108,-0.2113,-0.2134,-0.2139,-0.2161,-0.2152,-0.2152,-0.2135,-0.2176,-0.2129,-0.2127,-0.2124,-0.2077,-0.207,-0.2064,0,0,0,0,0,-0.2049,-0.2025,-0.204,-0.2042,-0.2058,-0.2059,-0.2061,-0.2087,-0.2106,-0.2097,-0.2114,-0.2138,-0.2136,-0.2151,-0.2151,-0.2134,-0.2131,-0.2128,-0.2125,-0.208,-0.2071,-0.2064,0,0,0,0,0,0,-0.1998,-0.2029,-0.2046,-0.203,-0.2041,-0.2067,-0.2056,-0.2077,-0.2083,-0.2087,-0.2119,-0.2123,-0.211,-0.2121,-0.2137,-0.211,-0.2137,-0.2134,-0.2103,-0.2095,-0.2089,-0.2086,-0.2176,0,0,0,0,0,-0.1985,-0.1983,-0.2011,-0.1994,-0.1999,-0.2026,-0.2027,-0.2047,-0.206,-0.2065,-0.2082,-0.2093,-0.2095,-0.2096,-0.2099,-0.2079,-0.2084,-0.2067,-0.206,-0.2055,-0.2052,-0.2043,-0.2035,-0.2113,-0.2113,-0.2113,0,0,-0.1958,-0.1975,-0.1972,-0.1984,-0.1995,-0.1993,-0.203,-0.2026,-0.2024,-0.2064,-0.2056,-0.2069,-0.2084,-0.2069,-0.2063,-0.2078,-0.2032,-0.2051,-0.2047,-0.2046,-0.2039,-0.2031,-0.2025,-0.2111,-0.2111,-0.2111,0,0,-0.1907,-0.192,-0.1907,-0.1918,-0.1934,-0.1953,-0.195,-0.1973,-0.1983,-0.1976,-0.2006,-0.2004,-0.2007,-0.2017,-0.2022,-0.1976,-0.1998,-0.1976,-0.1942,-0.1933,-0.1927,-0.1921,-0.1905,-0.1899,-0.1973,-0.1973,-0.1973,0,-0.1871,-0.1869,-0.1898,-0.1892,-0.1897,-0.1934,-0.1921,-0.193,-0.1946,-0.1949,-0.1965,-0.197,-0.1982,-0.197,-0.1959,-0.1962,-0.196,-0.1974,-0.1925,-0.192,-0.1916,-0.1901,-0.1894,-0.197,-0.197,-0.1971,-0.1971,0,-0.1825,-0.1823,-0.1811,-0.1826,-0.183,-0.1821,-0.1848,-0.1848,-0.1867,-0.1884,-0.1876,-0.1893,-0.1901,-0.1899,-0.1917,-0.189,-0.1899,-0.1919,-0.1948,-0.1905,-0.1892,-0.1886,-0.1966,-0.1967,-0.1968,-0.1969,0,0,-0.1743,-0.1775,-0.177,-0.1778,-0.1799,-0.1798,-0.1791,-0.1799,-0.1798,-0.1808,-0.1803,-0.1805,-0.1825,-0.1831,-0.185,-0.1842,-0.1805,-0.1864,-0.1865,-0.1853,-0.1776,-0.176,-0.1753,-0.182,-0.1819,-0.1818,-0.1775,0,-0.1696,-0.1686,-0.1712,-0.1695,-0.1694,-0.1729,-0.1723,-0.1735,-0.1751,-0.1752,-0.1769,-0.177,-0.1796,-0.18,-0.1793,-0.1811,-0.179,-0.1814,-0.1816,-0.1815,-0.1811,-0.1746,-0.1729,-0.1687,-0.177,-0.1769,-0.1768,0,-0.1641,-0.1649,-0.1632,-0.1655,-0.1656,-0.1649,-0.1659,-0.166,-0.1675,-0.1687,-0.1693,-0.1717,-0.1711,-0.1739,-0.1732,-0.1748,-0.175,-0.1759,-0.1758,-0.1759,-0.1789,-0.1745,-0.1674,-0.1668,-0.176,-0.1761,-0.1761,0,-0.1583,-0.159,-0.1581,-0.1586,-0.1612,-0.1607,-0.1618,-0.1634,-0.1638,-0.1646,-0.1649,-0.1656,-0.166,-0.1665,-0.169,-0.1708,-0.168,-0.171,-0.169,-0.1689,-0.1683,-0.1683,-0.1611,-0.1684,-0.1684,-0.1684,-0.1684,0,-0.1529,-0.1517,-0.1555,-0.1549,-0.1538,-0.1568,-0.1555,-0.1569,-0.1583,-0.1581,-0.1612,-0.1609,-0.1642,-0.1643,-0.1662,-0.1654,-0.1655,-0.1665,-0.167,-0.1662,-0.1661,-0.1664,-0.1667,-0.1682,-0.1683,-0.1683,-0.1683,0,-0.1462,-0.1487,-0.1479,-0.1505,-0.1511,-0.1501,-0.1524,-0.1519,-0.1537,-0.1534,-0.1535,-0.1563,-0.1566,-0.1591,-0.1599,-0.1612,-0.1596,-0.1607,-0.1591,-0.1595,-0.1574,-0.1576,-0.1502,-0.1494,-0.1571,-0.1571,-0.157,0,-0.1426,-0.1418,-0.1443,-0.1444,-0.1453,-0.1454,-0.1458,-0.1487,-0.149,-0.1506,-0.15,-0.1506,-0.1511,-0.1514,-0.1535,-0.1542,-0.1553,-0.1527,-0.1554,-0.1546,-0.1553,-0.1553,-0.1552,-0.1521,-0.152,-0.1519,-0.1518,0,-0.1359,-0.1372,-0.1376,-0.1385,-0.1388,-0.1396,-0.1406,-0.1405,-0.1438,-0.1439,-0.1443,-0.1447,-0.1456,-0.1461,-0.1471,-0.1482,-0.1506,-0.151,-0.1505,-0.1497,-0.1488,-0.1493,-0.1576,-0.1511,-0.1512,-0.1512,-0.1513,-0.1513,-0.1307,-0.1301,-0.1318,-0.1322,-0.1333,-0.1341,-0.1339,-0.1357,-0.136,-0.137,-0.1387,-0.1388,-0.1404,-0.142,-0.1429,-0.143,-0.1444,-0.1438,-0.1437,-0.1435,-0.143,-0.1488,-0.1432,-0.1433,-0.1433,-0.1433,-0.1433,0,-0.1241,-0.1254,-0.1257,-0.1271,-0.1274,-0.1296,-0.1308,-0.1309,-0.131,-0.1322,-0.1328,-0.1332,-0.1337,-0.1358,-0.1366,-0.1363,-0.1374,-0.1364,-0.1364,-0.1366,-0.1418,-0.142,-0.1355,-0.1355,-0.1355,-0.1355,-0.1355,-0.1355,-0.1208,-0.12,-0.1215,-0.1213,-0.1226,-0.1227,-0.1232,-0.1241,-0.1251,-0.1254,-0.1259,-0.1273,-0.1289,-0.1298,-0.1304,-0.1311,-0.1312,-0.1298,-0.1308,-0.1355,-0.1363,-0.137,-0.1373,-0.1298,-0.1298,-0.1257,-0.1257,-0.1256]}]]